Other Surface Observations
Issued by NWS Upton, NY

Home | Current Version | Previous Version | Text Only | Print | Product List | Glossary On
Versions: 1 2 3 4 5 6 7 8 9 10 11 12 13 14 15 16 17 18 19 20 21 22 23 24 25 26 27 28 29 30 31 32 33 34 35 36 37 38 39 40 41 42 43 44 45 46 47 48 49 50
000
SXUS51 KOKX 270357
OSOOKX
New York City Metropolitan Area Weather Roundup
National Weather Service New York NY
1100 PM EST SAT NOV 26 2022

CITY           SKY/WX    TMP DP  RH WIND       PRES   REMARKS
Central Park   CLEAR     51  27  39 VRB5      29.99S
LaGuardia Arpt PTCLDY    51  26  37 SW8       29.96F
Kennedy Intl   PTCLDY    48  35  60 SW14      29.99S
Newark Liberty PTCLDY    46  29  51 S7        29.97F
Teterboro Arpt CLEAR     42  29  59 SW7       29.96F
Bronx Lehman C   N/A     52  30  43 W7          N/A
Queens College   N/A     50  32  50 W12         N/A
Breezy Point     N/A     50 N/A N/A W9G15       N/A
Brooklyn Coll    N/A     50  32  50 SW12        N/A
Staten Island    N/A     48  32  53 SW6         N/A

>>>>>>>>>>>>>>>>>>>>>>>>>>>>>>>>> KEY <<<<<<<<<<<<<<<<<<<<<<<<<<<<<<<
> SKY/WX - Sky Condition/Present    : R : WCI - Wind Chill Index    <
>          Weather                  : E : VSB - Visibility in Miles <
> TMP    - Temperature in Deg F     : M : HX  - Heat Index          <
> DP     - Dew Point Temperature    : A : TC  - Temperature in      <
> RH     - Relative Humidity        : R :       Celsius             <
> WIND   - Direction/Speed (mph)    : K : VRB - Variable Wind Dir   <
> PRES   - Pressure (in Hg)         : S :                           <
>>>>>>>>>>>>>>>>>>>>>>>>>>>>>>>>> KEY <<<<<<<<<<<<<<<<<<<<<<<<<<<<<<<



USA.gov is the U.S. government's official web portal to all federal, state and local government web resources and services.